M I D A S
Marine Information and Data Acquisition System
Tripno 1577 of the Zeeleeuw from 2008-09-30 06:24:46 to 2008-09-30 13:58:00
Back to CruiseResearch ActivitiesStationsMapUnderway DataData graphs

EquipmentUnitsComment
TimeDGPSUTC
LatitudeDGPSDM.mWGS84
LongitudeDGPSDM.mWGS84
TemperatureSBE03/SBE38deg celciusITS90
ConductivitySBE21S/mITS90
SalinitySBE21 Practical Salinity Units
ChlorophylAChelsea fluorimeterg/lCalibrated in Aceton
Missing or incorrect values are displayed as -999
Sea surface data collected by the RV Zeeleeuw from 2008-09-30 06:24:46 to 2008-09-30 13:58:00
Time Latitude Longitude Temperature Conductivity Salinity ChlorophylA
2008-09-30 06:26:50 51°13.623 2°56.045 -999 -999 -999 -999
2008-09-30 06:28:50 51°13.674 2°55.874 -999 -999 -999 -999
2008-09-30 06:30:50 51°13.687 2°55.751 -999 -999 -999 -999
2008-09-30 06:32:50 51°13.696 2°55.764 -999 -999 -999 -999
2008-09-30 06:34:50 51°13.868 2°55.612 -999 -999 -999 -999
2008-09-30 06:36:50 51°14.115 2°55.421 -999 -999 -999 -999
2008-09-30 06:38:50 51°14.34 2°55.113 -999 -999 -999 -999
2008-09-30 06:40:50 51°14.491 2°54.669 -999 -999 -999 -999
2008-09-30 06:42:50 51°14.644 2°54.15 -999 -999 -999 -999
2008-09-30 06:44:50 51°14.693 2°53.568 -999 -999 -999 -999
2008-09-30 06:46:50 51°14.727 2°52.98 -999 -999 -999 -999
2008-09-30 06:48:50 51°14.767 2°52.384 -999 -999 -999 -999
2008-09-30 06:50:50 51°14.811 2°51.785 -999 -999 -999 -999
2008-09-30 06:52:50 51°14.854 2°51.179 -999 -999 -999 -999
2008-09-30 06:54:50 51°14.894 2°50.575 -999 -999 -999 -999
2008-09-30 06:56:50 51°14.93 2°49.966 -999 -999 -999 -999
2008-09-30 06:58:50 51°14.918 2°49.36 -999 -999 -999 -999
2008-09-30 07:00:50 51°14.866 2°48.725 -999 -999 -999 -999
2008-09-30 07:02:50 51°14.819 2°48.106 -999 -999 -999 -999
2008-09-30 07:04:50 51°14.777 2°47.479 -999 -999 -999 -999
2008-09-30 07:06:50 51°14.733 2°46.845 -999 -999 -999 -999
2008-09-30 07:08:50 51°14.693 2°46.232 -999 -999 -999 -999
2008-09-30 07:10:50 51°14.655 2°45.631 -999 -999 -999 -999
2008-09-30 07:12:50 51°14.608 2°45.025 -999 -999 -999 -999
2008-09-30 07:14:50 51°14.555 2°44.399 -999 -999 -999 -999
2008-09-30 07:16:50 51°14.488 2°43.778 -999 -999 -999 -999
2008-09-30 07:18:50 51°14.425 2°43.142 -999 -999 -999 -999
2008-09-30 07:20:50 51°14.363 2°42.518 -999 -999 -999 -999
2008-09-30 07:22:50 51°14.301 2°41.879 -999 -999 -999 -999
2008-09-30 07:24:50 51°14.457 2°41.408 -999 -999 -999 -999
2008-09-30 07:26:50 51°14.798 2°41.389 -999 -999 -999 -999
2008-09-30 07:28:50 51°15.147 2°41.373 -999 -999 -999 -999
2008-09-30 07:30:50 51°15.44 2°41.353 -999 -999 -999 -999
2008-09-30 07:32:50 51°15.494 2°41.503 -999 -999 -999 -999
2008-09-30 07:34:50 51°15.483 2°41.727 -999 -999 -999 -999
2008-09-30 07:36:50 51°15.427 2°41.823 -999 -999 -999 -999
2008-09-30 07:38:50 51°15.385 2°41.831 -999 -999 -999 -999
2008-09-30 07:40:50 51°15.352 2°41.841 -999 -999 -999 -999
2008-09-30 07:42:50 51°15.321 2°41.852 -999 -999 -999 -999
2008-09-30 07:44:50 51°15.288 2°41.863 -999 -999 -999 -999
2008-09-30 07:46:50 51°15.255 2°41.876 -999 -999 -999 -999
2008-09-30 07:48:50 51°15.222 2°41.888 -999 -999 -999 -999
2008-09-30 07:50:50 51°15.187 2°41.901 -999 -999 -999 -999
2008-09-30 07:52:50 51°15.154 2°41.915 -999 -999 -999 -999
2008-09-30 07:54:50 51°15.12 2°41.929 -999 -999 -999 -999
2008-09-30 07:56:50 51°15.085 2°41.94 -999 -999 -999 -999
2008-09-30 07:58:50 51°15.052 2°41.95 -999 -999 -999 -999
2008-09-30 08:00:50 51°15.02 2°41.96 -999 -999 -999 -999
2008-09-30 08:02:50 51°14.989 2°41.971 -999 -999 -999 -999
2008-09-30 08:04:50 51°14.957 2°41.983 -999 -999 -999 -999
2008-09-30 08:06:50 51°14.923 2°41.991 -999 -999 -999 -999
2008-09-30 08:08:50 51°14.89 2°41.997 -999 -999 -999 -999
2008-09-30 08:10:50 51°14.855 2°42.005 -999 -999 -999 -999
2008-09-30 08:12:50 51°14.821 2°42.01 -999 -999 -999 -999
2008-09-30 08:14:50 51°14.786 2°42.016 -999 -999 -999 -999
2008-09-30 08:16:50 51°14.751 2°42.023 -999 -999 -999 -999
2008-09-30 08:18:50 51°14.724 2°42.031 -999 -999 -999 -999
2008-09-30 08:20:50 51°14.692 2°42.039 -999 -999 -999 -999
2008-09-30 08:22:50 51°14.659 2°42.045 -999 -999 -999 -999
2008-09-30 08:24:50 51°14.628 2°42.054 -999 -999 -999 -999
2008-09-30 08:26:50 51°14.601 2°42.064 -999 -999 -999 -999
2008-09-30 08:28:50 51°14.575 2°42.074 -999 -999 -999 -999
2008-09-30 08:30:50 51°14.547 2°42.082 -999 -999 -999 -999
2008-09-30 08:32:50 51°14.516 2°42.083 -999 -999 -999 -999
2008-09-30 08:34:50 51°14.49 2°42.087 -999 -999 -999 -999
2008-09-30 08:36:50 51°14.463 2°42.09 -999 -999 -999 -999
2008-09-30 08:38:50 51°14.434 2°42.091 -999 -999 -999 -999
2008-09-30 08:40:50 51°14.406 2°42.092 -999 -999 -999 -999
2008-09-30 08:42:50 51°14.382 2°42.093 -999 -999 -999 -999
2008-09-30 08:44:50 51°14.355 2°42.092 -999 -999 -999 -999
2008-09-30 08:46:50 51°14.333 2°42.092 -999 -999 -999 -999
2008-09-30 08:48:50 51°14.307 2°42.088 -999 -999 -999 -999
2008-09-30 08:50:50 51°14.279 2°42.086 -999 -999 -999 -999
2008-09-30 08:52:50 51°14.247 2°42.081 -999 -999 -999 -999
2008-09-30 08:54:50 51°14.219 2°42.078 -999 -999 -999 -999
2008-09-30 08:56:50 51°14.192 2°42.081 -999 -999 -999 -999
2008-09-30 08:58:50 51°14.162 2°42.083 -999 -999 -999 -999
2008-09-30 09:00:50 51°14.13 2°42.084 -999 -999 -999 -999
2008-09-30 09:02:50 51°14.101 2°42.085 -999 -999 -999 -999
2008-09-30 09:04:50 51°14.071 2°42.091 -999 -999 -999 -999
2008-09-30 09:06:50 51°14.045 2°42.096 -999 -999 -999 -999
2008-09-30 09:08:50 51°14.018 2°42.101 -999 -999 -999 -999
2008-09-30 09:10:50 51°13.989 2°42.105 -999 -999 -999 -999
2008-09-30 09:12:50 51°13.956 2°42.107 -999 -999 -999 -999
2008-09-30 09:14:50 51°13.926 2°42.107 -999 -999 -999 -999
2008-09-30 09:16:50 51°13.898 2°42.109 -999 -999 -999 -999
2008-09-30 09:18:50 51°13.871 2°42.112 -999 -999 -999 -999
2008-09-30 09:20:50 51°13.847 2°42.113 -999 -999 -999 -999
2008-09-30 09:22:50 51°13.819 2°42.114 -999 -999 -999 -999
2008-09-30 09:24:50 51°13.788 2°42.117 -999 -999 -999 -999
2008-09-30 09:26:50 51°13.761 2°42.125 -999 -999 -999 -999
2008-09-30 09:28:50 51°13.729 2°42.131 -999 -999 -999 -999
2008-09-30 09:30:50 51°13.698 2°42.137 -999 -999 -999 -999
2008-09-30 09:32:50 51°13.67 2°42.145 -999 -999 -999 -999
2008-09-30 09:34:50 51°13.645 2°42.153 -999 -999 -999 -999
2008-09-30 09:36:50 51°13.618 2°42.163 -999 -999 -999 -999
2008-09-30 09:38:50 51°13.589 2°42.169 -999 -999 -999 -999
2008-09-30 09:40:50 51°13.558 2°42.175 -999 -999 -999 -999
2008-09-30 09:42:50 51°13.531 2°42.185 -999 -999 -999 -999
2008-09-30 09:44:50 51°13.487 2°42.197 -999 -999 -999 -999
2008-09-30 09:46:50 51°13.409 2°42.106 -999 -999 -999 -999
2008-09-30 09:48:50 51°13.453 2°42.034 -999 -999 -999 -999
2008-09-30 09:50:50 51°13.501 2°42.007 -999 -999 -999 -999
2008-09-30 09:52:50 51°13.554 2°41.979 -999 -999 -999 -999
2008-09-30 09:54:50 51°13.667 2°41.931 -999 -999 -999 -999
2008-09-30 09:56:50 51°13.837 2°41.913 -999 -999 -999 -999
2008-09-30 09:58:50 51°14.013 2°41.957 -999 -999 -999 -999
2008-09-30 10:00:50 51°14.194 2°42.005 -999 -999 -999 -999
2008-09-30 10:02:50 51°14.37 2°42.051 -999 -999 -999 -999
2008-09-30 10:04:50 51°14.553 2°42.099 -999 -999 -999 -999
2008-09-30 10:06:50 51°14.735 2°42.145 -999 -999 -999 -999
2008-09-30 10:08:50 51°14.878 2°42.108 -999 -999 -999 -999
2008-09-30 10:10:50 51°14.908 2°42.056 -999 -999 -999 -999
2008-09-30 10:12:50 51°14.93 2°41.913 -999 -999 -999 -999
2008-09-30 10:14:50 51°14.94 2°41.82 -999 -999 -999 -999
2008-09-30 10:16:50 51°14.934 2°41.757 -999 -999 -999 -999
2008-09-30 10:18:50 51°14.948 2°41.771 -999 -999 -999 -999
2008-09-30 10:20:50 51°14.952 2°41.719 -999 -999 -999 -999
2008-09-30 10:22:50 51°14.938 2°41.753 -999 -999 -999 -999
2008-09-30 10:24:50 51°14.936 2°41.771 -999 -999 -999 -999
2008-09-30 10:26:50 51°14.869 2°41.591 -999 -999 -999 -999
2008-09-30 10:28:50 51°14.777 2°41.37 -999 -999 -999 -999
2008-09-30 10:30:50 51°14.788 2°41.371 -999 -999 -999 -999
2008-09-30 10:32:50 51°14.792 2°41.405 -999 -999 -999 -999
2008-09-30 10:34:50 51°14.711 2°41.267 -999 -999 -999 -999
2008-09-30 10:36:50 51°14.629 2°41.012 -999 -999 -999 -999
2008-09-30 10:38:50 51°14.62 2°41.029 -999 -999 -999 -999
2008-09-30 10:40:50 51°14.637 2°41.062 -999 -999 -999 -999
2008-09-30 10:42:50 51°14.616 2°40.993 -999 -999 -999 -999
2008-09-30 10:44:50 51°14.491 2°40.728 -999 -999 -999 -999
2008-09-30 10:46:50 51°14.478 2°40.655 -999 -999 -999 -999
2008-09-30 10:48:50 51°14.491 2°40.715 -999 -999 -999 -999
2008-09-30 10:50:50 51°14.465 2°40.603 -999 -999 -999 -999
2008-09-30 10:52:50 51°14.339 2°40.333 -999 -999 -999 -999
2008-09-30 10:54:50 51°14.341 2°40.313 -999 -999 -999 -999
2008-09-30 10:56:50 51°14.355 2°40.391 -999 -999 -999 -999
2008-09-30 10:58:50 51°14.371 2°40.4 -999 -999 -999 -999
2008-09-30 11:00:50 51°14.279 2°40.207 -999 -999 -999 -999
2008-09-30 11:02:50 51°14.14 2°39.907 -999 -999 -999 -999
2008-09-30 11:04:50 51°14.091 2°39.803 -999 -999 -999 -999
2008-09-30 11:06:50 51°14.112 2°39.869 -999 -999 -999 -999
2008-09-30 11:08:50 51°14.107 2°39.893 -999 -999 -999 -999
2008-09-30 11:10:50 51°14.019 2°39.798 -999 -999 -999 -999
2008-09-30 11:12:50 51°13.893 2°39.53 -999 -999 -999 -999
2008-09-30 11:14:50 51°13.803 2°39.27 -999 -999 -999 -999
2008-09-30 11:16:50 51°13.798 2°39.267 -999 -999 -999 -999
2008-09-30 11:18:50 51°13.764 2°39.258 -999 -999 -999 -999
2008-09-30 11:20:50 51°13.723 2°39.222 -999 -999 -999 -999
2008-09-30 11:22:50 51°13.623 2°38.978 -999 -999 -999 -999
2008-09-30 11:24:50 51°13.579 2°38.928 -999 -999 -999 -999
2008-09-30 11:26:50 51°13.59 2°38.945 -999 -999 -999 -999
2008-09-30 11:28:50 51°13.585 2°38.935 -999 -999 -999 -999
2008-09-30 11:30:50 51°13.529 2°39.01 -999 -999 -999 -999
2008-09-30 11:32:50 51°13.591 2°39.443 -999 -999 -999 -999
2008-09-30 11:34:50 51°13.755 2°40.054 -999 -999 -999 -999
2008-09-30 11:36:50 51°13.951 2°40.677 -999 -999 -999 -999
2008-09-30 11:38:50 51°14.192 2°41.233 -999 -999 -999 -999
2008-09-30 11:40:50 51°14.299 2°41.252 -999 -999 -999 -999
2008-09-30 11:42:50 51°14.311 2°41.227 -999 -999 -999 -999
2008-09-30 11:44:50 51°14.356 2°41.331 -999 -999 -999 -999
2008-09-30 11:46:50 51°14.411 2°41.373 -999 -999 -999 -999
2008-09-30 11:48:50 51°14.331 2°41.111 -999 -999 -999 -999
2008-09-30 11:50:50 51°14.226 2°40.804 -999 -999 -999 -999
2008-09-30 11:52:50 51°14.189 2°40.673 -999 -999 -999 -999
2008-09-30 11:54:50 51°14.181 2°40.708 -999 -999 -999 -999
2008-09-30 11:56:50 51°14.152 2°40.692 -999 -999 -999 -999
2008-09-30 11:58:50 51°14.064 2°40.416 -999 -999 -999 -999
2008-09-30 13:00:50 51°12.15 2°47.923 -999 -999 -999 -999
2008-09-30 13:02:50 51°12.131 2°47.936 -999 -999 -999 -999
2008-09-30 13:04:50 51°12.157 2°47.945 -999 -999 -999 -999
2008-09-30 13:06:50 51°12.21 2°47.989 -999 -999 -999 -999
2008-09-30 13:08:50 51°12.258 2°48.03 -999 -999 -999 -999
2008-09-30 13:10:50 51°12.249 2°47.979 -999 -999 -999 -999
2008-09-30 13:12:50 51°12.134 2°47.81 -999 -999 -999 -999
2008-09-30 13:14:50 51°12.078 2°47.738 -999 -999 -999 -999
2008-09-30 13:16:50 51°12.137 2°47.775 -999 -999 -999 -999
2008-09-30 13:18:50 51°12.15 2°47.814 -999 -999 -999 -999
2008-09-30 13:20:50 51°12.172 2°47.86 -999 -999 -999 -999
2008-09-30 13:22:50 51°12.182 2°47.87 -999 -999 -999 -999
2008-09-30 13:24:50 51°12.18 2°47.854 -999 -999 -999 -999
2008-09-30 13:26:50 51°12.184 2°47.906 -999 -999 -999 -999
2008-09-30 13:28:50 51°12.188 2°47.99 -999 -999 -999 -999
2008-09-30 13:30:50 51°12.223 2°48.286 -999 -999 -999 -999
2008-09-30 13:32:50 51°12.499 2°48.738 -999 -999 -999 -999
2008-09-30 13:34:50 51°12.714 2°49.296 -999 -999 -999 -999
2008-09-30 13:36:50 51°12.907 2°49.898 -999 -999 -999 -999
2008-09-30 13:38:50 51°13.138 2°50.475 -999 -999 -999 -999
2008-09-30 13:40:50 51°13.37 2°51.054 -999 -999 -999 -999
2008-09-30 13:42:50 51°13.6 2°51.637 -999 -999 -999 -999
2008-09-30 13:44:50 51°13.811 2°52.228 -999 -999 -999 -999
2008-09-30 13:46:50 51°14.02 2°52.828 -999 -999 -999 -999
2008-09-30 13:48:50 51°14.226 2°53.423 -999 -999 -999 -999
2008-09-30 13:50:50 51°14.377 2°54.049 -999 -999 -999 -999
2008-09-30 13:52:50 51°14.415 2°54.735 -999 -999 -999 -999
2008-09-30 13:54:50 51°14.241 2°55.287 -999 -999 -999 -999
2008-09-30 13:56:50 51°14.024 2°55.496 -999 -999 -999 -999